#timestamp,LO_Frequency,Hit,StdDev 
1612594815.6,286046989.1,N
1612594835.4,286046986.9,N
1612594855.3,286046990.5,N
1612594875.1,286047001.7,N
1612594876.0,286047001.7,N
1612594895.8,286046999.5,N
1612594915.7,286047002.5,N
1612594935.5,286047011.3,N
1612594955.3,286047018.0,Y
1612594975.2,286047019.3,P
1612594995.0,286047018.5,N
1612594995.9,286047018.5,N
1612595015.8,286047010.3,N
1612595035.6,286047017.1,N
1612595055.5,286047019.0,N
1612595075.3,286047020.2,N
1612595095.1,286047017.6,N
1612595115.9,286047006.1,N
1612595135.7,286047016.0,N
1612595155.6,286047025.1,Y
1612595175.4,286047007.4,P
1612595195.2,286047015.2,P
1612595215.1,286047017.9,P
1612595216.0,286047017.9,Y
1612595235.8,286047006.7,P
1612595255.6,286047013.3,P
1612595275.5,286047016.0,P
1612595295.3,286047020.6,Y
1612595315.2,286047010.9,P
1612595335.9,286047017.2,P
1612595355.7,286047018.0,P
1612595375.6,286047009.1,N
1612595395.4,286047007.0,N
1612595415.2,286047002.7,N
1612595435.1,286046988.6,N
1612595436.0,286046988.6,N
1612595455.8,286046988.2,N
1612595475.7,286046988.3,N
1612595495.5,286046981.8,N
1612595515.3,286046976.5,N
1612595535.2,286046977.9,N
1612595555.0,286046977.0,N
1612595555.9,286046977.0,N
1612595575.7,286046976.4,N
1612595595.6,286046974.1,N
1612595615.4,286046979.6,N
1612595635.3,286046979.1,N
1612595655.1,286046975.8,N
1612595656.0,286046975.8,N
1612595675.8,286046972.8,N
1612595695.7,286046969.2,N
1612595715.5,286046969.8,N
1612595735.3,286046966.9,N
1612595755.2,286046962.7,N
1612595775.0,286046957.4,N
1612595775.9,286046957.4,N
1612595795.8,286046952.5,N
1612595815.6,286046949.7,N
1612595835.4,286046947.4,N
1612595855.3,286046949.3,N
1612595875.1,286046949.0,N
1612595895.8,286046941.0,Y
1612595915.7,286046967.1,P
1612595935.5,286046967.1,P
1612595955.4,286046959.7,P
1612595975.2,286046965.9,Y
1612595995.0,286046994.2,P
1612595995.9,286046994.2,N
1612596015.8,286046991.2,N
1612596035.6,286047002.5,N
1612596055.5,286047004.1,N
1612596075.3,286046998.6,N
1612596095.1,286047014.8,N
1612596115.9,286046997.7,N
1612596135.7,286047002.7,N
1612596155.5,286046998.1,N
1612596175.4,286046992.6,N
1612596195.2,286046992.2,N
1612596215.0,286046989.7,N
1612596215.9,286046989.7,N
1612596235.8,286046995.6,N
1612596255.6,286047000.5,N
1612596275.5,286047006.8,N
1612596295.3,286047001.0,N
1612596315.1,286046991.4,N
1612596335.9,286046991.1,N
1612596355.7,286046995.4,N
1612596375.5,286046987.4,N
1612596395.4,286046991.7,N
1612596415.2,286046999.0,N
1612596435.1,286046992.8,N
1612596436.0,286046992.8,N
1612596455.8,286046989.2,N
1612596475.6,286046982.5,N
1612596495.5,286046987.8,N
1612596515.3,286046992.7,N
1612596535.2,286046986.5,N
1612596555.9,286046982.9,N
1612596575.7,286046991.1,N
1612596595.6,286046994.8,N
1612596615.4,286046992.2,N
1612596635.3,286047007.4,N
1612596655.1,286047005.6,N
1612596656.0,286047005.6,N
1612596675.8,286046997.3,N
1612596695.7,286047001.1,N
1612596715.5,286046997.4,N
1612596735.3,286046994.0,N
1612596755.2,286047008.7,N
1612596775.0,286047014.3,N
1612596775.9,286047014.3,N
1612596795.8,286047017.8,N
1612596815.6,286047019.1,N
1612596835.4,286047021.1,N
1612596855.3,286047018.2,N
1612596875.1,286047022.9,N
1612596895.9,286047024.5,N
1612596915.7,286047023.4,N
1612596935.5,286047017.2,N
1612596955.4,286047010.4,N
1612596975.2,286047007.5,N
1612596995.1,286046993.6,N
1612596996.0,286046993.6,N
1612597015.8,286046994.1,N
1612597035.6,286047000.7,N
1612597055.5,286047003.1,N
1612597075.3,286047002.2,N
1612597095.1,286047003.8,N
1612597115.9,286047011.4,N
1612597135.7,286047012.1,N
1612597155.6,286047017.9,N
1612597175.4,286047012.9,N
1612597195.2,286047018.0,N
1612597215.1,286047026.4,N
1612597216.0,286047026.4,N
1612597235.8,286047019.9,N
1612597255.7,286047021.5,N
1612597275.5,286047025.1,N
1612597295.3,286047013.1,N
1612597315.2,286047014.4,N
1612597335.0,286047019.8,N
1612597335.9,286047019.8,N
1612597355.8,286047017.4,N
1612597375.6,286047018.5,N
1612597395.4,286047021.8,N
1612597415.3,286047021.7,N
1612597435.1,286047018.1,N
1612597455.9,286047016.7,N
1612597475.7,286047024.6,N
1612597495.5,286047022.4,N
1612597515.4,286047027.4,N
1612597535.2,286047019.8,N
1612597555.1,286047015.7,N
1612597556.0,286047015.7,N
1612597575.8,286047016.1,N
1612597595.6,286047006.9,N
1612597615.5,286047004.7,N
1612597635.3,286046997.7,N
1612597655.1,286046994.8,N
1612597675.9,286046988.6,N
1612597695.7,286046998.2,N
1612597715.6,286047004.8,N
1612597735.4,286047010.0,N
1612597755.3,286047020.3,N
1612597775.1,286047015.8,N
1612597776.0,286047015.8,N
1612597795.8,286047025.2,N
1612597815.7,286047011.0,N
1612597835.5,286047013.2,N
1612597855.3,286047015.3,N
1612597875.2,286047020.3,N
1612597895.0,286047010.6,N
1612597895.9,286047010.6,N
1612597915.8,286047006.4,N
1612597935.6,286047004.4,N
1612597955.4,286047012.1,N
1612597975.3,286047011.8,N
1612597995.1,286047012.6,N
1612598015.9,286047010.9,N
1612598035.2,286047014.5,N
1612598055.0,286047017.8,N
1612598055.9,286047017.8,N
1612598075.8,286047024.5,Y
1612598095.6,286047006.8,P
1612598115.5,286047008.3,P
1612598135.3,286047006.7,P
1612598155.2,286046999.1,N
1612598175.9,286046999.8,N
1612598195.7,286047004.1,N
1612598215.6,286047007.7,N
1612598235.4,286047014.0,Y
1612598255.2,286047003.9,P
1612598275.1,286046998.6,N
1612598276.0,286046998.6,N
1612598295.8,286046995.5,N
1612598315.7,286046993.7,N
1612598335.5,286046990.6,N
1612598355.3,286046990.9,N
1612598375.2,286046987.9,N
1612598395.0,286046993.2,N
1612598395.9,286046993.2,N
